When you browse on this site, cookies collect data to enhance your experience and personalize the content and advertising you see.
Visit our Privacy Policy to learn more. By continuing to use the site, you agree to this use of cookies and data.
  • Em Portugal
  • Lista de países
  • Para 7 dias
  • Temperatura da água
  • Mapas de satélite
  • Mapa do tempo
  • Widgets de tempo
  • user-avatar
    Iniciar Sessão

    Previsão horária em Wiazowa

    Hoje, 24 Abril, Quarta-feira

    Tempo Temperatura Precipitação Vento Pressão Humidade
    00:00 +11°C° 0 mm 7 m/s 753 mmHg 56%
    01:00 +10°C° 0 mm 6 m/s 753 mmHg 58%
    02:00 +10°C° 0 mm 6 m/s 753 mmHg 60%
    03:00 +9°C° 0 mm 6 m/s 753 mmHg 62%
    04:00 +9°C° 0 mm 6 m/s 753 mmHg 64%
    05:00 +9°C° 0 mm 6 m/s 753 mmHg 65%
    06:00 +10°C° 0 mm 7 m/s 753 mmHg 66%
    07:00 +11°C° 0 mm 7 m/s 753 mmHg 68%
    08:00 +12°C° 0 mm 7 m/s 753 mmHg 65%
    09:00 +15°C° 0 mm 7 m/s 753 mmHg 61%
    10:00 +17°C° 0 mm 7 m/s 753 mmHg 58%
    11:00 +18°C° 0 mm 7 m/s 752 mmHg 57%
    12:00 +18°C° 0 mm 7 m/s 752 mmHg 56%
    13:00 +20°C° 0 mm 7 m/s 752 mmHg 55%
    14:00 +20°C° 0 mm 6 m/s 752 mmHg 57%
    15:00 +20°C° 0 mm 6 m/s 752 mmHg 59%
    16:00 +19°C° 0 mm 5 m/s 752 mmHg 61%
    17:00 +19°C° 0 mm 5 m/s 752 mmHg 62%
    18:00 +19°C° 0 mm 5 m/s 752 mmHg 63%
    19:00 +17°C° 0 mm 5 m/s 752 mmHg 63%
    20:00 +16°C° 0 mm 5 m/s 752 mmHg 66%
    21:00 +16°C° 0 mm 5 m/s 752 mmHg 69%
    22:00 +15°C° 0 mm 5 m/s 752 mmHg 72%
    23:00 +14°C° 0 mm 5 m/s 752 mmHg 74%

    Amanhã, 25 Abril, Quinta-feira

    Tempo Temperatura Precipitação Vento Pressão Humidade
    00:00 +13°C° 0 mm 5 m/s 752 mmHg 76%
    01:00 +13°C° 0 mm 4 m/s 752 mmHg 78%
    02:00 +13°C° 0 mm 4 m/s 752 mmHg 78%
    03:00 +12°C° 0 mm 5 m/s 752 mmHg 78%
    04:00 +12°C° 0 mm 5 m/s 752 mmHg 79%
    05:00 +13°C° 0 mm 5 m/s 752 mmHg 77%
    06:00 +15°C° 0 mm 5 m/s 752 mmHg 75%
    07:00 +16°C° 0 mm 5 m/s 752 mmHg 73%
    08:00 +17°C° 0 mm 5 m/s 752 mmHg 68%
    09:00 +20°C° 0 mm 5 m/s 752 mmHg 63%
    10:00 +21°C° 0 mm 6 m/s 752 mmHg 58%
    11:00 +22°C° 0 mm 5 m/s 752 mmHg 56%
    12:00 +22°C° 0 mm 5 m/s 752 mmHg 55%
    13:00 +22°C° 0 mm 5 m/s 752 mmHg 54%
    14:00 +22°C° 0 mm 4 m/s 752 mmHg 54%
    15:00 +22°C° 0 mm 4 m/s 752 mmHg 55%
    16:00 +22°C° 0 mm 3 m/s 751 mmHg 55%
    17:00 +21°C° 0 mm 2 m/s 751 mmHg 61%
    18:00 +19°C° 0 mm 2 m/s 751 mmHg 66%
    19:00 +19°C° 0 mm 1 m/s 751 mmHg 71%
    20:00 +18°C° 0 mm 1 m/s 751 mmHg 74%
    21:00 +16°C° 0 mm 1 m/s 752 mmHg 78%
    22:00 +15°C° 0 mm 2 m/s 752 mmHg 81%
    23:00 +15°C° 0 mm 2 m/s 751 mmHg 83%

    Depois de amanhã, 26 Abril, Sexta-feira

    Tempo Temperatura Precipitação Vento Pressão Humidade
    00:00 +15°C° 0 mm 2 m/s 751 mmHg 86%
    01:00 +14°C° 0 mm 2 m/s 751 mmHg 89%
    02:00 +14°C° 0 mm 2 m/s 751 mmHg 89%
    03:00 +14°C° 0 mm 2 m/s 751 mmHg 88%
    04:00 +14°C° 0 mm 2 m/s 751 mmHg 88%
    05:00 +15°C° 0 mm 2 m/s 751 mmHg 83%
    06:00 +16°C° 0 mm 2 m/s 750 mmHg 77%
    07:00 +18°C° 0 mm 2 m/s 750 mmHg 72%
    08:00 +19°C° 0 mm 2 m/s 750 mmHg 66%
    09:00 +21°C° 0 mm 2 m/s 750 mmHg 60%
    10:00 +24°C° 0 mm 2 m/s 750 mmHg 55%
    11:00 +24°C° 0 mm 3 m/s 749 mmHg 52%
    12:00 +25°C° 0 mm 3 m/s 749 mmHg 49%
    13:00 +26°C° 0 mm 3 m/s 749 mmHg 46%
    14:00 +26°C° 0 mm 3 m/s 749 mmHg 46%
    15:00 +25°C° 0 mm 2 m/s 748 mmHg 47%
    16:00 +25°C° 0 mm 2 m/s 748 mmHg 48%
    17:00 +24°C° 0 mm 1 m/s 748 mmHg 52%
    18:00 +22°C° 0 mm 1 m/s 748 mmHg 57%
    19:00 +20°C° 0 mm 1 m/s 748 mmHg 62%
    20:00 +20°C° 0 mm 1 m/s 748 mmHg 63%
    21:00 +19°C° 0 mm 1 m/s 748 mmHg 65%
    22:00 +19°C° 0 mm 1 m/s 748 mmHg 67%
    23:00 +18°C° 0 mm 1 m/s 748 mmHg 70%

    27 Abril, Sábado

    Tempo Temperatura Precipitação Vento Pressão Humidade
    00:00 +18°C° 0 mm 1 m/s 747 mmHg 73%
    01:00 +16°C° 0 mm 1 m/s 747 mmHg 76%
    02:00 +16°C° 0 mm 1 m/s 747 mmHg 79%
    03:00 +15°C° 0 mm 1 m/s 747 mmHg 81%
    04:00 +15°C° 0 mm 2 m/s 747 mmHg 83%
    05:00 +16°C° 0 mm 2 m/s 747 mmHg 82%
    06:00 +16°C° 0 mm 2 m/s 747 mmHg 80%
    07:00 +17°C° 0 mm 3 m/s 747 mmHg 79%
    08:00 +18°C° 0 mm 3 m/s 747 mmHg 76%
    09:00 +19°C° 0 mm 4 m/s 747 mmHg 74%
    10:00 +20°C° 0 mm 5 m/s 747 mmHg 72%
    11:00 +19°C° 0 mm 5 m/s 747 mmHg 74%
    12:00 +19°C° 0 mm 5 m/s 747 mmHg 75%
    13:00 +17°C° 0 mm 6 m/s 748 mmHg 77%
    14:00 +17°C° 0 mm 6 m/s 748 mmHg 77%
    15:00 +16°C° 0 mm 6 m/s 748 mmHg 76%
    16:00 +16°C° 0 mm 6 m/s 748 mmHg 75%
    17:00 +15°C° 0 mm 6 m/s 749 mmHg 76%
    18:00 +14°C° 0 mm 6 m/s 749 mmHg 76%
    19:00 +11°C° 0 mm 6 m/s 750 mmHg 77%
    20:00 +10°C° 0 mm 6 m/s 750 mmHg 78%
    21:00 +9°C° 0 mm 5 m/s 751 mmHg 80%
    22:00 +8°C° 0 mm 5 m/s 751 mmHg 81%
    23:00 +9°C° 0 mm 5 m/s 751 mmHg 80%

    28 Abril, Domingo

    Tempo Temperatura Precipitação Vento Pressão Humidade
    00:00 +9°C° 0 mm 5 m/s 752 mmHg 79%
    01:00 +9°C° 0 mm 5 m/s 752 mmHg 78%
    02:00 +8°C° 0 mm 5 m/s 752 mmHg 80%
    03:00 +8°C° 0 mm 5 m/s 753 mmHg 82%
    04:00 +8°C° 0 mm 5 m/s 753 mmHg 85%
    05:00 +8°C° 0 mm 5 m/s 753 mmHg 84%
    06:00 +8°C° 0 mm 5 m/s 753 mmHg 82%
    07:00 +9°C° 0 mm 5 m/s 754 mmHg 81%
    08:00 +11°C° 0 mm 4 m/s 754 mmHg 78%
    09:00 +12°C° 0 mm 4 m/s 754 mmHg 75%
    10:00 +12°C° 0 mm 4 m/s 755 mmHg 72%
    11:00 +13°C° 0 mm 4 m/s 755 mmHg 69%
    12:00 +14°C° 0 mm 3 m/s 755 mmHg 66%
    13:00 +16°C° 0 mm 3 m/s 755 mmHg 62%
    14:00 +16°C° 0 mm 3 m/s 755 mmHg 63%
    15:00 +15°C° 0 mm 4 m/s 755 mmHg 63%
    16:00 +15°C° 0 mm 4 m/s 755 mmHg 63%
    17:00 +14°C° 0 mm 3 m/s 755 mmHg 66%
    18:00 +13°C° 0 mm 3 m/s 755 mmHg 70%
    19:00 +12°C° 0 mm 3 m/s 755 mmHg 73%
    20:00 +12°C° 0 mm 3 m/s 756 mmHg 75%
    21:00 +11°C° 0 mm 3 m/s 756 mmHg 77%
    22:00 +11°C° 0 mm 3 m/s 756 mmHg 79%
    23:00 +11°C° 0 mm 3 m/s 756 mmHg 80%

    29 Abril, Segunda-feira

    Tempo Temperatura Precipitação Vento Pressão Humidade
    00:00 +10°C° 0 mm 3 m/s 756 mmHg 82%
    01:00 +10°C° 0 mm 4 m/s 756 mmHg 83%
    02:00 +10°C° 0.1 mm 4 m/s 755 mmHg 84%
    03:00 +10°C° 0.1 mm 4 m/s 755 mmHg 86%
    04:00 +10°C° 0.1 mm 4 m/s 755 mmHg 88%
    05:00 +10°C° 0.1 mm 4 m/s 755 mmHg 88%
    06:00 +10°C° 0.1 mm 5 m/s 755 mmHg 89%
    07:00 +10°C° 0.1 mm 5 m/s 755 mmHg 89%
    08:00 +10°C° 0.3 mm 5 m/s 755 mmHg 89%
    09:00 +12°C° 0.3 mm 4 m/s 755 mmHg 89%
    10:00 +12°C° 0.3 mm 4 m/s 754 mmHg 89%
    11:00 +14°C° 0.1 mm 4 m/s 754 mmHg 87%
    12:00 +15°C° 0.1 mm 4 m/s 754 mmHg 85%
    13:00 +17°C° 0.1 mm 3 m/s 754 mmHg 83%
    14:00 +18°C° 0.6 mm 3 m/s 753 mmHg 79%
    15:00 +19°C° 0.6 mm 4 m/s 753 mmHg 74%
    16:00 +20°C° 0.6 mm 4 m/s 753 mmHg 69%
    17:00 +19°C° 0.3 mm 4 m/s 753 mmHg 75%
    18:00 +17°C° 0.3 mm 3 m/s 753 mmHg 82%
    19:00 +16°C° 0.3 mm 3 m/s 753 mmHg 89%
    20:00 +14°C° 0 mm 3 m/s 754 mmHg 90%
    21:00 +13°C° 0 mm 3 m/s 754 mmHg 91%
    22:00 +12°C° 0 mm 3 m/s 754 mmHg 93%
    23:00 +11°C° 0 mm 3 m/s 754 mmHg 93%
    Mostrar mais